Date String (YYYY-MM-DD hh:mm:ss) UTC,Instrument flags,Ambient pressure (hPa),Sample flow (lpm),Bypass flow (lpm),Sample temperature (°C),Ambient temperature (°C),ASC tube jacket temperature (°C),LED temperature (°C),Box temperature (°C),Sample RH (%),Span deviation,Mass concentration (μg/m³),Mass concentration (μg/m³),Mass concentration (μg/m³)
DateTimeUTC,F1_M11,P_M11,Q1_M11,Q2_M11,T1_M11,T2_M11,T3_M11,T4_M11,T5_M11,U1_M11,ZSPAN_M11,X0_M11,X2_M11,X1_M11
2022-06-29 23:00:00,,0827.9,5.01,0.00,29.0,28.0,00.0,37.7,31.0,22.8,0000.0,0013.82,0004.67,0003.56
2022-06-29 23:01:00,,0827.9,4.99,0.00,29.0,27.5,00.0,37.7,30.9,22.4,0000.0,0013.49,0004.61,0003.56
2022-06-29 23:02:00,,0827.9,5.00,0.00,28.9,26.9,00.0,37.6,30.7,22.4,0000.0,0012.13,0004.59,0003.56
2022-06-29 23:03:00,,0827.9,5.00,0.00,28.9,26.8,00.0,37.6,30.7,23.1,0000.0,0011.81,0004.57,0003.54
2022-06-29 23:04:00,,0827.9,5.00,0.00,28.8,26.9,00.0,37.6,30.7,23.0,0000.0,0012.09,0004.60,0003.54
2022-06-29 23:05:00,,0827.9,4.99,0.00,28.8,27.0,00.0,37.6,30.7,23.0,0000.0,0012.91,0004.62,0003.54
2022-06-29 23:06:00,,0827.9,5.01,0.00,28.8,27.2,00.0,37.6,30.8,22.4,0000.0,0013.23,0004.62,0003.54
2022-06-29 23:07:00,,0827.9,4.99,0.00,28.9,27.5,00.0,37.6,30.9,22.1,0000.0,0014.05,0004.60,0003.53
2022-06-29 23:08:00,,0827.9,5.00,0.00,28.9,27.7,00.0,37.6,30.9,22.7,0000.0,0013.28,0004.62,0003.53
2022-06-29 23:09:00,,0827.9,5.00,0.00,28.9,27.9,00.0,37.7,31.0,22.6,0000.0,0012.95,0004.64,0003.53
2022-06-29 23:10:00,,0827.9,5.00,0.00,29.0,27.9,00.0,37.7,31.0,22.9,0000.0,0013.08,0004.61,0003.52
2022-06-29 23:11:00,,0828.0,5.00,0.00,29.0,27.2,00.0,37.6,30.8,22.1,0000.0,0013.71,0004.60,0003.51
2022-06-29 23:12:00,,0827.9,5.00,0.00,28.9,26.8,00.0,37.6,30.7,22.1,0000.0,0013.74,0004.62,0003.51
2022-06-29 23:13:00,,0828.0,5.00,0.00,28.8,26.8,00.0,37.6,30.6,22.6,0000.0,0013.92,0004.64,0003.51
2022-06-29 23:14:00,,0828.0,5.00,0.00,28.8,26.9,00.0,37.6,30.7,22.8,0000.0,0014.28,0004.63,0003.51
2022-06-29 23:15:00,,0828.0,4.99,0.00,28.8,27.1,00.0,37.6,30.7,22.9,0000.0,0013.90,0004.60,0003.51
2022-06-29 23:16:00,,0827.9,5.01,0.00,28.8,27.3,00.0,37.6,30.8,22.7,0000.0,0012.98,0004.60,0003.51
2022-06-29 23:17:00,,0828.0,5.01,0.00,28.9,27.5,00.0,37.6,30.9,22.0,0000.0,0013.30,0004.61,0003.52
2022-06-29 23:18:00,,0827.9,5.00,0.00,28.9,27.7,00.0,37.7,30.9,21.6,0000.0,0012.24,0004.63,0003.53
2022-06-29 23:19:00,,0827.9,4.99,0.00,28.9,27.9,00.0,37.7,31.0,21.6,0000.0,0011.89,0004.55,0003.54
2022-06-29 23:20:00,,0827.9,5.00,0.00,29.0,28.0,00.0,37.7,31.0,21.3,0000.0,0011.83,0004.52,0003.55
2022-06-29 23:21:00,,0827.9,5.00,0.00,29.0,27.3,00.0,37.6,30.9,21.3,0000.0,0011.63,0004.54,0003.55
2022-06-29 23:22:00,,0827.8,5.00,0.00,28.9,26.9,00.0,37.6,30.7,21.0,0000.0,0011.28,0004.56,0003.56
2022-06-29 23:23:00,,0827.7,5.00,0.00,28.9,26.8,00.0,37.6,30.7,21.5,0000.0,0011.75,0004.58,0003.57
2022-06-29 23:24:00,,0827.7,5.00,0.00,28.9,27.0,00.0,37.6,30.7,22.4,0000.0,0011.80,0004.63,0003.58
2022-06-29 23:25:00,,0827.7,5.02,0.00,28.9,27.1,00.0,37.6,30.8,22.7,0000.0,0011.97,0004.67,0003.59
2022-06-29 23:26:00,,0827.8,5.00,0.00,28.9,27.4,00.0,37.6,30.8,23.6,0000.0,0013.50,0004.72,0003.60
2022-06-29 23:27:00,,0827.7,5.00,0.00,28.9,27.6,00.0,37.6,30.9,23.4,0000.0,0013.29,0004.74,0003.59
2022-06-29 23:28:00,,0827.7,5.00,0.00,28.9,27.8,00.0,37.7,31.0,23.8,0000.0,0012.98,0004.73,0003.60
2022-06-29 23:29:00,,0827.7,5.01,0.00,29.0,28.0,00.0,37.7,31.0,24.0,0000.0,0013.87,0004.73,0003.60
2022-06-29 23:30:00,,0827.7,5.00,0.00,29.0,28.1,00.0,37.7,31.1,23.7,0000.0,0014.25,0004.81,0003.61
2022-06-29 23:31:00,,0827.6,5.00,0.00,29.0,27.5,00.0,37.7,30.9,23.4,0000.0,0014.20,0004.80,0003.60
2022-06-29 23:32:00,,0827.6,5.00,0.00,28.9,27.0,00.0,37.6,30.8,23.4,0000.0,0014.14,0004.79,0003.61
2022-06-29 23:33:00,,0827.6,5.00,0.00,28.9,26.9,00.0,37.6,30.7,23.5,0000.0,0014.26,0004.79,0003.61
2022-06-29 23:34:00,,0827.5,4.99,0.00,28.9,27.0,00.0,37.6,30.8,22.8,0000.0,0014.07,0004.79,0003.61
2022-06-29 23:35:00,,0827.5,5.00,0.00,28.9,27.2,00.0,37.6,30.8,22.4,0000.0,0013.89,0004.72,0003.61
2022-06-29 23:36:00,,0827.5,5.00,0.00,28.9,27.4,00.0,37.6,30.9,22.3,0000.0,0013.89,0004.68,0003.60
2022-06-29 23:37:00,,0827.5,5.00,0.00,28.9,27.6,00.0,37.7,30.9,22.0,0000.0,0012.63,0004.64,0003.61
2022-06-29 23:38:00,,0827.5,5.00,0.00,29.0,27.8,00.0,37.7,31.0,22.2,0000.0,0012.68,0004.62,0003.62
2022-06-29 23:39:00,,0827.5,5.00,0.00,29.0,28.0,00.0,37.7,31.1,21.8,0000.0,0012.23,0004.60,0003.61
2022-06-29 23:40:00,,0827.6,4.99,0.00,29.1,28.1,00.0,37.7,31.1,21.7,0000.0,0010.91,0004.56,0003.61
2022-06-29 23:41:00,,0827.6,5.00,0.00,29.1,27.7,00.0,37.7,31.0,22.2,0000.0,0010.76,0004.49,0003.59
2022-06-29 23:42:00,,0827.5,5.00,0.00,29.0,27.0,00.0,37.7,30.8,22.5,0000.0,0011.30,0004.49,0003.59
2022-06-29 23:43:00,,0827.5,5.01,0.00,29.0,26.9,00.0,37.7,30.7,22.4,0000.0,0011.89,0004.50,0003.60
2022-06-29 23:44:00,,0827.5,5.00,0.00,28.9,27.0,00.0,37.7,30.8,22.3,0000.0,0012.03,0004.49,0003.60
2022-06-29 23:45:00,,0827.5,4.99,0.00,28.9,27.1,00.0,37.7,30.8,22.2,0000.0,0012.16,0004.42,0003.58
2022-06-29 23:46:00,,0827.5,5.00,0.00,28.9,27.3,00.0,37.7,30.8,22.2,0000.0,0012.15,0004.39,0003.57
2022-06-29 23:47:00,,0827.5,5.00,0.00,28.9,27.6,00.0,37.7,30.9,22.3,0000.0,0012.05,0004.38,0003.57
2022-06-29 23:48:00,,0827.5,5.01,0.00,29.0,27.8,00.0,37.7,31.0,22.7,0000.0,0012.47,0004.34,0003.55
2022-06-29 23:49:00,,0827.5,4.99,0.00,29.0,28.0,00.0,37.7,31.1,22.9,0000.0,0012.58,0004.31,0003.53
2022-06-29 23:50:00,,0827.5,5.01,0.00,29.1,28.1,00.0,37.7,31.1,23.2,0000.0,0013.12,0004.31,0003.52
2022-06-29 23:51:00,,0827.5,5.00,0.00,29.1,27.7,00.0,37.7,31.0,23.3,0000.0,0013.44,0004.29,0003.51
2022-06-29 23:52:00,,0827.5,4.99,0.00,29.0,27.0,00.0,37.7,30.8,23.0,0000.0,0013.40,0004.31,0003.50
2022-06-29 23:53:00,,0827.5,5.00,0.00,29.0,26.9,00.0,37.7,30.7,23.2,0000.0,0012.91,0004.28,0003.49
2022-06-29 23:54:00,,0827.6,5.00,0.00,28.9,26.9,00.0,37.7,30.7,23.4,0000.0,0012.20,0004.24,0003.48
2022-06-29 23:55:00,,0827.5,5.00,0.00,28.9,27.1,00.0,37.7,30.8,23.7,0000.0,0011.67,0004.23,0003.48
2022-06-29 23:56:00,,0827.4,5.00,0.00,28.9,27.3,00.0,37.7,30.8,23.8,0000.0,0011.36,0004.30,0003.48
2022-06-29 23:57:00,,0827.4,4.99,0.00,28.9,27.5,00.0,37.7,30.9,24.0,0000.0,0012.49,0004.33,0003.50
2022-06-29 23:58:00,,0827.4,5.00,0.00,29.0,27.7,00.0,37.7,31.0,24.3,0000.0,0012.54,0004.34,0003.50
2022-06-29 23:59:00,,0827.4,5.01,0.00,29.0,27.9,00.0,37.7,31.1,23.9,0000.0,0012.22,0004.37,0003.51
